Location: LDNL
(36.4545°S, 141.6685°E)
Time: 12:30:40
(UTC+10:00)

Tiros 1 despin weight - Pass Details

Date: 16 August 2022
Orbit: 590 x 639 km, 48.2° (Epoch: 23 September)

Event Time Altitude Azimuth Distance (km) Brightness Sun altitude
Rises 03:54:21 0° 232° (SW) 2,952 - -40.8°
Reaches altitude 10° 03:56:53 10° 222° (SW) 2,046 - -40.3°
Maximum altitude 04:01:09 33° 158° (SSE) 1,092 - -39.5°
Exits shadow 04:04:36 14° 98° (E) 1,770 ? -38.8°
Drops below altitude 10° 04:05:26 10° 93° (E) 2,043 ? -38.6°
Sets 04:07:57 0° 83° (E) 2,948 ? -38.1°
